SHT5R EGAC-EGLL

Flight info

Callsign SHT5R
Flight time 0h 52m
Altitude 25000
Route DCT DUFFY L10 RINGA Q39 ETIGA DCT INKOB Q39 NOMSU UQ4 WAL UY53 NUGRA NUGRA2H
Aircraft A20N/M-SDGIJ1LRWXY/SB1

Departure

Time 2026-04-26 12:10
Airport George Best Belfast City Airport (EGAC)

Arrival

Time 2026-04-26 13:03
Airport London Heathrow Airport (EGLL)
Time Latitude Longitude Altitude Speed Heading
2026-04-26 11:51 54.61460 -5.87187 26 ft 0 kts 157°
2026-04-26 12:03 54.61472 -5.87196 26 ft 4 kts 158°
2026-04-26 12:03 54.61498 -5.87213 26 ft 4 kts 162°
2026-04-26 12:04 54.61523 -5.87222 24 ft 4 kts 186°
2026-04-26 12:04 54.61538 -5.87215 26 ft 0 kts 217°
2026-04-26 12:07 54.61512 -5.87248 25 ft 10 kts 215°
2026-04-26 12:07 54.61431 -5.87345 24 ft 17 kts 221°
2026-04-26 12:08 54.61337 -5.87495 23 ft 20 kts 217°
2026-04-26 12:08 54.61217 -5.87644 25 ft 23 kts 215°
2026-04-26 12:08 54.61105 -5.87779 24 ft 11 kts 218°
2026-04-26 12:08 54.61086 -5.87823 23 ft 0 kts 246°
2026-04-26 12:09 54.61081 -5.87860 23 ft 8 kts 266°
2026-04-26 12:09 54.61114 -5.87992 26 ft 14 kts 315°
2026-04-26 12:09 54.61177 -5.88007 25 ft 3 kts 31°
2026-04-26 12:10 54.61216 -5.87960 22 ft 18 kts 35°
2026-04-26 12:10 54.61583 -5.87523 22 ft 106 kts 34°
2026-04-26 12:10 54.62353 -5.86567 299 ft 151 kts 35°
2026-04-26 12:10 54.63215 -5.85498 1243 ft 157 kts 34°
2026-04-26 12:11 54.64136 -5.84423 2107 ft 169 kts 34°
2026-04-26 12:11 54.65186 -5.83193 2759 ft 190 kts 33°
2026-04-26 12:11 54.66255 -5.81663 3349 ft 213 kts 54°
2026-04-26 12:11 54.66789 -5.79154 3999 ft 235 kts 88°
2026-04-26 12:12 54.66476 -5.76343 4669 ft 253 kts 118°
2026-04-26 12:12 54.65296 -5.73960 5436 ft 264 kts 149°
2026-04-26 12:12 54.63619 -5.72906 6518 ft 260 kts 177°
2026-04-26 12:12 54.62409 -5.73041 7266 ft 258 kts 195°
2026-04-26 12:13 54.60038 -5.73625 8605 ft 267 kts 174°
2026-04-26 12:13 54.58263 -5.72598 9664 ft 274 kts 156°
2026-04-26 12:13 54.56583 -5.70971 10630 ft 282 kts 153°
2026-04-26 12:13 54.54818 -5.69219 11070 ft 305 kts 154°
2026-04-26 12:14 54.52866 -5.67447 11448 ft 328 kts 156°
2026-04-26 12:14 54.50776 -5.65698 12164 ft 337 kts 157°
2026-04-26 12:14 54.48661 -5.64004 13016 ft 343 kts 158°
2026-04-26 12:14 54.46470 -5.62284 13867 ft 350 kts 158°
2026-04-26 12:15 54.44233 -5.60541 14636 ft 355 kts 158°
2026-04-26 12:15 54.41983 -5.58734 15441 ft 360 kts 154°
2026-04-26 12:15 54.39897 -5.56270 16213 ft 368 kts 141°
2026-04-26 12:15 54.38141 -5.53010 16975 ft 377 kts 128°
2026-04-26 12:16 54.36643 -5.49288 17738 ft 381 kts 126°
2026-04-26 12:16 54.35136 -5.45526 18513 ft 385 kts 127°
2026-04-26 12:16 54.33602 -5.41723 19165 ft 390 kts 127°
2026-04-26 12:16 54.32049 -5.37893 19835 ft 393 kts 127°
2026-04-26 12:17 54.30498 -5.34083 20479 ft 397 kts 127°
2026-04-26 12:17 54.28909 -5.30187 21136 ft 401 kts 127°
2026-04-26 12:17 54.27266 -5.26319 21773 ft 404 kts 131°
2026-04-26 12:17 54.25473 -5.22593 22405 ft 408 kts 131°
2026-04-26 12:18 54.23661 -5.18826 23043 ft 412 kts 131°
2026-04-26 12:18 54.21831 -5.15022 23661 ft 416 kts 131°
2026-04-26 12:18 54.19989 -5.11194 24217 ft 419 kts 132°
2026-04-26 12:18 54.18128 -5.07329 24759 ft 422 kts 132°
2026-04-26 12:19 54.16280 -5.03493 24947 ft 425 kts 132°
2026-04-26 12:19 54.14404 -4.99608 25045 ft 425 kts 132°
2026-04-26 12:19 54.12525 -4.95725 25138 ft 424 kts 132°
2026-04-26 12:19 54.10643 -4.91845 25233 ft 425 kts 132°
2026-04-26 12:20 54.08753 -4.87956 25275 ft 426 kts 132°
2026-04-26 12:20 54.06879 -4.84105 25282 ft 425 kts 133°
2026-04-26 12:20 54.04978 -4.80206 25281 ft 425 kts 133°
2026-04-26 12:20 54.03111 -4.76313 25282 ft 426 kts 131°
2026-04-26 12:21 54.01315 -4.72297 25279 ft 426 kts 129°
2026-04-26 12:21 53.99544 -4.68246 25293 ft 427 kts 129°
2026-04-26 12:21 53.97774 -4.64208 25292 ft 427 kts 129°
2026-04-26 12:21 53.95995 -4.60185 25290 ft 426 kts 130°
2026-04-26 12:22 53.94201 -4.56158 25290 ft 426 kts 130°
2026-04-26 12:22 53.92407 -4.52153 25291 ft 426 kts 130°
2026-04-26 12:22 53.90608 -4.48148 25277 ft 427 kts 130°
2026-04-26 12:22 53.88832 -4.44200 25288 ft 427 kts 130°
2026-04-26 12:23 53.87030 -4.40202 25288 ft 427 kts 130°
2026-04-26 12:23 53.85276 -4.36135 25283 ft 428 kts 128°
2026-04-26 12:23 53.83592 -4.31976 25282 ft 428 kts 127°
2026-04-26 12:23 53.81921 -4.27798 25281 ft 428 kts 127°
2026-04-26 12:24 53.80245 -4.23637 25279 ft 428 kts 127°
2026-04-26 12:24 53.78554 -4.19477 25282 ft 428 kts 128°
2026-04-26 12:24 53.76857 -4.15332 25278 ft 430 kts 128°
2026-04-26 12:25 53.73466 -4.07099 25281 ft 430 kts 128°
2026-04-26 12:25 53.71754 -4.02957 25282 ft 430 kts 128°
2026-04-26 12:25 53.70041 -3.98818 25284 ft 430 kts 128°
2026-04-26 12:25 53.68329 -3.94686 25281 ft 430 kts 128°
2026-04-26 12:26 53.66614 -3.90558 25272 ft 429 kts 128°
2026-04-26 12:26 53.64897 -3.86433 25274 ft 429 kts 128°
2026-04-26 12:26 53.63179 -3.82314 25285 ft 430 kts 128°
2026-04-26 12:26 53.61460 -3.78198 25275 ft 429 kts 128°
2026-04-26 12:27 53.59740 -3.74086 25276 ft 429 kts 128°
2026-04-26 12:27 53.58043 -3.70037 25277 ft 429 kts 128°
2026-04-26 12:27 53.56318 -3.65926 25272 ft 429 kts 128°
2026-04-26 12:27 53.54599 -3.61834 25277 ft 430 kts 128°
2026-04-26 12:28 53.52868 -3.57723 25276 ft 431 kts 128°
2026-04-26 12:28 53.51134 -3.53611 25274 ft 431 kts 128°
2026-04-26 12:28 53.49400 -3.49505 25285 ft 431 kts 128°
2026-04-26 12:28 53.47687 -3.45399 25280 ft 431 kts 126°
2026-04-26 12:29 53.46209 -3.40986 25281 ft 434 kts 118°
2026-04-26 12:29 53.45012 -3.36331 25274 ft 435 kts 115°
2026-04-26 12:29 53.42668 -3.27045 25292 ft 435 kts 115°
2026-04-26 12:30 53.41481 -3.22383 25285 ft 435 kts 115°
2026-04-26 12:30 53.40289 -3.17720 25285 ft 435 kts 116°
2026-04-26 12:30 53.38933 -3.13201 25293 ft 433 kts 123°
2026-04-26 12:31 53.35461 -3.05029 25297 ft 432 kts 130°
2026-04-26 12:31 53.33659 -3.00997 25292 ft 432 kts 129°
2026-04-26 12:31 53.31864 -2.96972 25288 ft 431 kts 129°
2026-04-26 12:31 53.30071 -2.92956 25299 ft 431 kts 129°
2026-04-26 12:32 53.28276 -2.88939 25301 ft 432 kts 129°
2026-04-26 12:32 53.26502 -2.84976 25284 ft 432 kts 130°
2026-04-26 12:32 53.22900 -2.76952 25291 ft 431 kts 130°
2026-04-26 12:33 53.21101 -2.72954 25297 ft 431 kts 130°
2026-04-26 12:33 53.19302 -2.68962 25295 ft 431 kts 130°
2026-04-26 12:33 53.17498 -2.64967 25299 ft 431 kts 130°
2026-04-26 12:33 53.15695 -2.60983 25297 ft 431 kts 130°
2026-04-26 12:34 53.13887 -2.57008 25299 ft 431 kts 130°
2026-04-26 12:34 53.12136 -2.53024 25293 ft 433 kts 127°
2026-04-26 12:34 53.10441 -2.48867 25296 ft 435 kts 126°
2026-04-26 12:34 53.08764 -2.44672 25296 ft 435 kts 126°
2026-04-26 12:35 53.07084 -2.40493 25301 ft 434 kts 126°
2026-04-26 12:35 53.05392 -2.36326 25301 ft 434 kts 127°
2026-04-26 12:35 53.03545 -2.32382 25301 ft 431 kts 135°
2026-04-26 12:35 53.01380 -2.28967 25298 ft 428 kts 144°
2026-04-26 12:36 52.98957 -2.26133 25301 ft 425 kts 151°
2026-04-26 12:36 52.96457 -2.23541 25297 ft 424 kts 151°
2026-04-26 12:36 52.93964 -2.20941 25304 ft 424 kts 151°
2026-04-26 12:36 52.91465 -2.18328 25304 ft 424 kts 150°
2026-04-26 12:37 52.88975 -2.15723 25304 ft 424 kts 150°
2026-04-26 12:37 52.86478 -2.13114 25304 ft 424 kts 151°
2026-04-26 12:37 52.83981 -2.10508 25303 ft 424 kts 151°
2026-04-26 12:37 52.81487 -2.07910 25303 ft 424 kts 151°
2026-04-26 12:38 52.78988 -2.05310 25301 ft 424 kts 151°
2026-04-26 12:38 52.76492 -2.02719 25300 ft 424 kts 151°
2026-04-26 12:38 52.74035 -2.00171 25287 ft 423 kts 150°
2026-04-26 12:38 52.71533 -1.97580 25311 ft 424 kts 150°
2026-04-26 12:39 52.69040 -1.95001 25312 ft 423 kts 150°
2026-04-26 12:39 52.66545 -1.92422 25310 ft 423 kts 150°
2026-04-26 12:39 52.64043 -1.89840 25307 ft 424 kts 150°
2026-04-26 12:39 52.61555 -1.87277 25312 ft 423 kts 150°
2026-04-26 12:40 52.59057 -1.84707 25316 ft 424 kts 150°
2026-04-26 12:40 52.56555 -1.82136 25317 ft 424 kts 150°
2026-04-26 12:40 52.54051 -1.79567 25319 ft 424 kts 150°
2026-04-26 12:40 52.51586 -1.77041 25320 ft 423 kts 150°
2026-04-26 12:41 52.49094 -1.74491 25321 ft 421 kts 150°
2026-04-26 12:41 52.46606 -1.71948 25319 ft 421 kts 151°
2026-04-26 12:41 52.44119 -1.69411 25319 ft 422 kts 151°
2026-04-26 12:41 52.41625 -1.66870 25318 ft 422 kts 151°
2026-04-26 12:42 52.39143 -1.64343 25146 ft 420 kts 151°
2026-04-26 12:42 52.36669 -1.61830 24565 ft 421 kts 150°
2026-04-26 12:42 52.34152 -1.59277 23668 ft 426 kts 150°
2026-04-26 12:42 52.31617 -1.56710 22707 ft 429 kts 150°
2026-04-26 12:43 52.29095 -1.54157 22045 ft 424 kts 150°
2026-04-26 12:43 52.26646 -1.51678 21505 ft 416 kts 150°
2026-04-26 12:43 52.24211 -1.49218 20952 ft 408 kts 150°
2026-04-26 12:43 52.21855 -1.46770 20762 ft 394 kts 146°
2026-04-26 12:44 52.19728 -1.44021 20204 ft 390 kts 141°
2026-04-26 12:44 52.17664 -1.41125 19482 ft 392 kts 141°
2026-04-26 12:44 52.15628 -1.38252 19164 ft 381 kts 141°
2026-04-26 12:44 52.13637 -1.35452 18846 ft 379 kts 141°
2026-04-26 12:45 52.11638 -1.32655 18434 ft 379 kts 141°
2026-04-26 12:45 52.09646 -1.29878 18036 ft 376 kts 141°
2026-04-26 12:45 52.07671 -1.27131 17666 ft 373 kts 141°
2026-04-26 12:45 52.05727 -1.24433 17271 ft 372 kts 141°
2026-04-26 12:46 52.03762 -1.21709 16889 ft 370 kts 141°
2026-04-26 12:46 52.01811 -1.19009 16504 ft 367 kts 141°
2026-04-26 12:46 51.99875 -1.16330 16112 ft 366 kts 141°
2026-04-26 12:46 51.97946 -1.13664 15841 ft 361 kts 141°
2026-04-26 12:47 51.96069 -1.11071 15723 ft 349 kts 141°
2026-04-26 12:47 51.94257 -1.08565 15598 ft 335 kts 141°
2026-04-26 12:47 51.92516 -1.06162 15483 ft 323 kts 142°
2026-04-26 12:47 51.90838 -1.03850 15370 ft 310 kts 142°
2026-04-26 12:48 51.89227 -1.01635 15265 ft 298 kts 142°
2026-04-26 12:48 51.87677 -0.99506 15163 ft 287 kts 142°
2026-04-26 12:48 51.86203 -0.97449 14903 ft 283 kts 138°
2026-04-26 12:48 51.84945 -0.94997 14514 ft 285 kts 124°
2026-04-26 12:49 51.84025 -0.92149 14179 ft 285 kts 117°
2026-04-26 12:49 51.83152 -0.89241 13835 ft 283 kts 118°
2026-04-26 12:49 51.82296 -0.86422 13509 ft 282 kts 118°
2026-04-26 12:49 51.81433 -0.83597 13166 ft 280 kts 118°
2026-04-26 12:50 51.80572 -0.80789 12824 ft 278 kts 118°
2026-04-26 12:50 51.79717 -0.78004 12496 ft 276 kts 118°
2026-04-26 12:50 51.78867 -0.75233 12145 ft 274 kts 118°
2026-04-26 12:50 51.78020 -0.72476 11799 ft 273 kts 118°
2026-04-26 12:51 51.77180 -0.69746 11475 ft 270 kts 118°
2026-04-26 12:51 51.76346 -0.67041 11121 ft 269 kts 117°
2026-04-26 12:51 51.75512 -0.64338 10794 ft 268 kts 118°
2026-04-26 12:51 51.74683 -0.61656 10464 ft 266 kts 118°
2026-04-26 12:52 51.73861 -0.59001 10156 ft 264 kts 118°
2026-04-26 12:52 51.72925 -0.56521 9784 ft 261 kts 136°
2026-04-26 12:52 51.71436 -0.54951 9403 ft 255 kts 165°
2026-04-26 12:52 51.69688 -0.54581 9001 ft 252 kts 179°
2026-04-26 12:53 51.67949 -0.54539 8662 ft 251 kts 181°
2026-04-26 12:53 51.66181 -0.54528 8327 ft 250 kts 180°
2026-04-26 12:53 51.64439 -0.54490 7990 ft 250 kts 180°
2026-04-26 12:53 51.62746 -0.54688 7674 ft 247 kts 198°
2026-04-26 12:54 51.61323 -0.56146 7482 ft 239 kts 230°
2026-04-26 12:54 51.60515 -0.58510 7397 ft 245 kts 251°
2026-04-26 12:54 51.60134 -0.61158 7319 ft 242 kts 261°
2026-04-26 12:54 51.59953 -0.63841 7316 ft 243 kts 265°
2026-04-26 12:55 51.59830 -0.66529 7312 ft 237 kts 265°
2026-04-26 12:55 51.59700 -0.69141 7302 ft 229 kts 264°
2026-04-26 12:55 51.59562 -0.71620 7218 ft 219 kts 264°
2026-04-26 12:55 51.59419 -0.74000 7141 ft 208 kts 264°
2026-04-26 12:56 51.59271 -0.76262 7018 ft 199 kts 258°
2026-04-26 12:56 51.58658 -0.78197 6716 ft 197 kts 221°
2026-04-26 12:56 51.57474 -0.79260 6405 ft 196 kts 195°
2026-04-26 12:56 51.56140 -0.79622 6172 ft 193 kts 183°
2026-04-26 12:57 51.54797 -0.79650 5896 ft 192 kts 178°
2026-04-26 12:57 51.53471 -0.79556 5664 ft 190 kts 176°
2026-04-26 12:57 51.52156 -0.79440 5423 ft 189 kts 176°
2026-04-26 12:58 51.49523 -0.79146 4962 ft 189 kts 161°
2026-04-26 12:58 51.48472 -0.77973 4697 ft 186 kts 127°
2026-04-26 12:58 51.47904 -0.76170 4471 ft 180 kts 109°
2026-04-26 12:58 51.47657 -0.74181 4046 ft 183 kts 97°
2026-04-26 12:59 51.47632 -0.72123 3639 ft 187 kts 90°
2026-04-26 12:59 51.47679 -0.70021 3224 ft 190 kts 90°
2026-04-26 12:59 51.47704 -0.67776 2757 ft 191 kts 91°
2026-04-26 12:59 51.47710 -0.65744 2360 ft 188 kts 91°
2026-04-26 13:00 51.47710 -0.64379 2117 ft 182 kts 92°
2026-04-26 13:00 51.47716 -0.62441 1838 ft 162 kts 92°
2026-04-26 13:00 51.47720 -0.60135 1560 ft 159 kts 92°
2026-04-26 13:00 51.47726 -0.58370 1352 ft 157 kts 91°
2026-04-26 13:01 51.47730 -0.56630 1137 ft 150 kts 91°
2026-04-26 13:01 51.47733 -0.55036 931 ft 136 kts 90°
2026-04-26 13:01 51.47736 -0.53613 750 ft 123 kts 92°
2026-04-26 13:01 51.47740 -0.52201 588 ft 125 kts 91°
2026-04-26 13:02 51.47743 -0.51216 473 ft 124 kts 90°
2026-04-26 13:02 51.47744 -0.49922 297 ft 121 kts 89°
2026-04-26 13:02 51.47752 -0.48503 134 ft 123 kts 90°
2026-04-26 13:02 51.47754 -0.47300 84 ft 87 kts 90°
2026-04-26 13:03 51.47756 -0.46533 92 ft 51 kts 90°
2026-04-26 13:03 51.47721 -0.46173 88 ft 19 kts 145°
2026-04-26 13:03 51.47622 -0.46077 87 ft 14 kts 184°
2026-04-26 13:03 51.47593 -0.46197 86 ft 15 kts 269°
2026-04-26 13:04 51.47593 -0.46384 88 ft 19 kts 269°
2026-04-26 13:04 51.47592 -0.46614 86 ft 22 kts 270°
2026-04-26 13:04 51.47584 -0.46870 88 ft 22 kts 259°
2026-04-26 13:04 51.47582 -0.47121 88 ft 24 kts 269°
2026-04-26 13:05 51.47581 -0.47384 90 ft 24 kts 270°
2026-04-26 13:05 51.47580 -0.47665 89 ft 22 kts 269°
2026-04-26 13:05 51.47580 -0.47917 89 ft 24 kts 270°
2026-04-26 13:05 51.47579 -0.48201 89 ft 26 kts 269°
2026-04-26 13:06 51.47577 -0.48406 89 ft 19 kts 268°
2026-04-26 13:06 51.47490 -0.48475 86 ft 17 kts 180°
2026-04-26 13:06 51.47363 -0.48473 86 ft 20 kts 179°
2026-04-26 13:06 51.47222 -0.48473 88 ft 20 kts 180°
2026-04-26 13:07 51.47091 -0.48472 89 ft 18 kts 180°
2026-04-26 13:07 51.46971 -0.48471 88 ft 16 kts 180°
2026-04-26 13:07 51.46881 -0.48514 86 ft 12 kts 249°
2026-04-26 13:07 51.46877 -0.48664 86 ft 14 kts 271°
2026-04-26 13:08 51.46904 -0.48715 90 ft 6 kts 354°
2026-04-26 13:08 51.46918 -0.48715 86 ft 4 kts 359°
2026-04-26 13:08 51.46930 -0.48715 89 ft 3 kts 359°